Miscellaneous Local Product
Issued by NWS Hastings, NE

Home | Current Version | Previous Version | Text Only | Print | Product List | Glossary Off
Versions: 1 2 3 4 5 6 7 8 9 10 11 12 13 14 15 16 17 18 19 20 21 22 23 24 25 26 27 28 29 30 31 32 33 34 35 36 37 38 39 40 41 42 43 44 45 46 47 48 49 50

000
AXUS43 KGID 161602
MISGRI

GID CWA HOURLY WEATHER ROUNDUP
NATIONAL WEATHER SERVICE HASTINGS NE
1000 AM CST MON JAN 16 2017

NOTE: "FAIR" INDICATES FEW OR NO CLOUDS BELOW 12,000 FEET WITH NO
SIGNIFICANT WEATHER AND/OR OBSTRUCTIONS TO VISIBILITY.

...SOUTH CENTRAL NEBRASKA...

CITY           SKY/WX    TMP DP  RH WIND       PRES   REMARKS
GRAND ISLAND     N/A    N/A N/A N/A MISG      29.94S
HASTINGS       FRZ RAIN  32  30  92 NE14      29.94R FOG     WCI  22
KEARNEY        CLOUDY    32  28  86 N9        29.94R WCI  24
ORD            MIX PCPN  32  30  92 N10       29.97R FOG     WCI  24
YORK           RAIN      32  32 100 CALM      29.94R
AURORA         MIX PCPN  32  31  98 NE6       29.94R WCI  26
LEXINGTON      LGT RAIN  33  32  96 N8        29.94R WCI  26
HOLDREGE       LGT SNOW  32  31  96 N6        29.92R WCI  26
HEBRON         MIX PCPN  32  31  98 NE3       29.91R

...NEBRASKA PANHANDLE...

CITY           SKY/WX    TMP DP  RH WIND       PRES   REMARKS
CHADRON        CLOUDY    27  17  66 NW7       30.11S WCI  19
ALLIANCE       CLOUDY    31  18  58 N14       30.03S WCI  21
SCOTTSBLUFF    CLOUDY    36  18  48 NW10      30.07R WCI  28
SIDNEY         CLOUDY    33  24  69 N16       30.01R WCI  23

...WESTERN AND NORTH CENTRAL NEBRASKA...

CITY           SKY/WX    TMP DP  RH WIND       PRES   REMARKS
VALENTINE      CLOUDY    30  20  66 N9        30.05R WCI  22
AINSWORTH      CLOUDY    28  26  91 N13       30.03S WCI  17
ONEILL         CLOUDY    31  31  96 N8        30.02S FOG     WCI  24
BROKEN BOW     LGT RAIN  34  32  92 N16       29.96R FOG     WCI  24
IMPERIAL       LGT RAIN  33  31  92 N18       29.95R FOG     WCI  22
NORTH PLATTE   LGT RAIN  33  31  92 N7        29.96R FOG     WCI  27
MCCOOK         LGT RAIN  33  32  96 N10       29.93R FOG     WCI  25

...EASTERN NEBRASKA...

CITY           SKY/WX    TMP DP  RH WIND       PRES   REMARKS
NORFOLK        MIX PCPN  31  29  92 N12       29.99R FOG     WCI  22
SO SIOUX CITY  CLOUDY    34  31  88 NE7       30.03S WCI  28
TEKAMAH        LGT RAIN  33  31  92 NE8       30.00S FOG     WCI  26
COLUMBUS       CLOUDY    32  28  86 CALM      29.98S
ALBION         MIX PCPN  32  31  95 N8        29.99R WCI  25
OMAHA EPPLEY   LGT RAIN  33  29  85 NE6       29.98F FOG     WCI  28
OFFUTT AFB     RAIN      33  33 100 NE6       29.96F FOG     WCI  27
MILLARD        LGT RAIN  35  33  93 CALM      29.97S
LINCOLN        RAIN      33  31  92 NE13      29.96R FOG     WCI  24
NEBRASKA CITY  MIX PCPN  32  32 100 NE7       29.93S WCI  26
BEATRICE       LGT RAIN  33  32  96 NE7       29.91S WCI  27
FALLS CITY     CLOUDY    33  32  96 E9        29.91S FOG     WCI  25

...NORTHERN KANSAS...

CITY           SKY/WX    TMP DP  RH WIND       PRES   REMARKS
GOODLAND       LGT SNOW  31  31 100 N18       29.91R FOG     WCI  19
HILL CITY      FRZ RAIN  33  32  96 N15       29.90R WCI  23
NORTON         MIX PCPN  34  28  80 N3        29.90S
PHILLIPSBURG   DRIZZLE   34  34 100 N8        29.91S WCI  27
SMITH CENTER   MIX PCPN  30  30 100 N6        29.90R WCI  24
HAYS           CLOUDY    32  31  96 N12       29.87R WCI  23
RUSSELL        CLOUDY    32  31  96 N10       29.85R WCI  24
CONCORDIA      CLOUDY    32  32 100 NE9       29.87R FOG     WCI  24
SALINA         FOG       34  32  92 N8        29.86R VSB 1   WCI  27
TOPEKA         CLOUDY    38  36  92 E7        29.87S WCI  33



USA.gov is the U.S. government's official web portal to all federal, state and local government web resources and services.